When you browse on this site, cookies collect data to enhance your experience and personalize the content and advertising you see.
Visit our Privacy Policy to learn more. By continuing to use the site, you agree to this use of cookies and data.
  • In Schweiz
  • Länderverzeichnis
  • Für 7 Tage
  • Wassertemperatur
  • Wetterkarte
  • Widgets
  • user-avatar
    Anmelden

    Stündliche Wetter Hrasdan

    Heute, 23 Januar, Donnerstag

    Zeit Temperatur Niederschläge Wind Luftdruck Luftfeuchtigkeit
    00:00 -13°C° 0 mm 2 m/S 606 mmHg 73%
    01:00 -13°C° 0 mm 2 m/S 606 mmHg 74%
    02:00 -13°C° 0 mm 2 m/S 605 mmHg 75%
    03:00 -13°C° 0 mm 2 m/S 605 mmHg 79%
    04:00 -13°C° 0 mm 2 m/S 605 mmHg 81%
    05:00 -13°C° 0 mm 2 m/S 604 mmHg 82%
    06:00 -13°C° 0 mm 2 m/S 604 mmHg 84%
    07:00 -13°C° 0 mm 2 m/S 604 mmHg 84%
    08:00 -12°C° 0 mm 2 m/S 604 mmHg 84%
    09:00 -12°C° 0 mm 3 m/S 604 mmHg 84%
    10:00 -10°C° 0 mm 3 m/S 604 mmHg 84%
    11:00 -9°C° 0 mm 3 m/S 604 mmHg 83%
    12:00 -8°C° 0 mm 3 m/S 603 mmHg 82%
    13:00 -8°C° 0 mm 3 m/S 603 mmHg 82%
    14:00 -8°C° 0 mm 3 m/S 602 mmHg 82%
    15:00 -9°C° 0 mm 4 m/S 602 mmHg 82%
    16:00 -9°C° 0.2 mm 3 m/S 602 mmHg 85%
    17:00 -10°C° 0.2 mm 3 m/S 602 mmHg 88%
    18:00 -9°C° 0.2 mm 2 m/S 602 mmHg 91%
    19:00 -10°C° 0.1 mm 2 m/S 602 mmHg 91%
    20:00 -10°C° 0.1 mm 2 m/S 602 mmHg 91%
    21:00 -10°C° 0.1 mm 2 m/S 602 mmHg 92%
    22:00 -10°C° 0.2 mm 2 m/S 603 mmHg 92%
    23:00 -10°C° 0.2 mm 2 m/S 603 mmHg 92%

    Morgen, 24 Januar, Freitag

    Zeit Temperatur Niederschläge Wind Luftdruck Luftfeuchtigkeit
    00:00 -9°C° 0.2 mm 2 m/S 604 mmHg 93%
    01:00 -10°C° 0.1 mm 2 m/S 604 mmHg 92%
    02:00 -10°C° 0.1 mm 2 m/S 604 mmHg 92%
    03:00 -12°C° 0.1 mm 2 m/S 604 mmHg 92%
    04:00 -12°C° 0 mm 2 m/S 604 mmHg 91%
    05:00 -12°C° 0 mm 2 m/S 604 mmHg 90%
    06:00 -13°C° 0 mm 2 m/S 604 mmHg 88%
    07:00 -12°C° 0 mm 2 m/S 605 mmHg 86%
    08:00 -12°C° 0 mm 2 m/S 606 mmHg 84%
    09:00 -12°C° 0 mm 2 m/S 607 mmHg 82%
    10:00 -10°C° 0 mm 2 m/S 607 mmHg 76%
    11:00 -9°C° 0 mm 2 m/S 607 mmHg 70%
    12:00 -8°C° 0 mm 2 m/S 607 mmHg 64%
    13:00 -8°C° 0 mm 2 m/S 608 mmHg 66%
    14:00 -8°C° 0 mm 2 m/S 608 mmHg 68%
    15:00 -9°C° 0 mm 2 m/S 608 mmHg 70%
    16:00 -10°C° 0 mm 2 m/S 607 mmHg 68%
    17:00 -13°C° 0 mm 2 m/S 607 mmHg 65%
    18:00 -15°C° 0 mm 2 m/S 607 mmHg 63%
    19:00 -15°C° 0 mm 2 m/S 608 mmHg 63%
    20:00 -16°C° 0 mm 2 m/S 608 mmHg 64%
    21:00 -16°C° 0 mm 2 m/S 609 mmHg 64%
    22:00 -16°C° 0 mm 2 m/S 610 mmHg 64%
    23:00 -16°C° 0 mm 2 m/S 610 mmHg 64%

    übermorgen, 25 Januar, Samstag

    Zeit Temperatur Niederschläge Wind Luftdruck Luftfeuchtigkeit
    00:00 -17°C° 0 mm 2 m/S 610 mmHg 65%
    01:00 -17°C° 0 mm 2 m/S 610 mmHg 63%
    02:00 -17°C° 0 mm 2 m/S 610 mmHg 62%
    03:00 -15°C° 0 mm 1 m/S 611 mmHg 60%
    04:00 -15°C° 0 mm 1 m/S 611 mmHg 59%
    05:00 -15°C° 0 mm 1 m/S 611 mmHg 58%
    06:00 -15°C° 0 mm 1 m/S 611 mmHg 57%
    07:00 -14°C° 0 mm 1 m/S 611 mmHg 60%
    08:00 -13°C° 0 mm 1 m/S 612 mmHg 63%
    09:00 -12°C° 0 mm 1 m/S 613 mmHg 66%
    10:00 -13°C° 0 mm 2 m/S 613 mmHg 66%
    11:00 -10°C° 0 mm 2 m/S 613 mmHg 67%
    12:00 -9°C° 0 mm 2 m/S 613 mmHg 67%
    13:00 -9°C° 0 mm 2 m/S 613 mmHg 69%
    14:00 -9°C° 0 mm 2 m/S 612 mmHg 71%
    15:00 -9°C° 0 mm 2 m/S 612 mmHg 73%
    16:00 -10°C° 0 mm 2 m/S 611 mmHg 72%
    17:00 -13°C° 0 mm 2 m/S 611 mmHg 71%
    18:00 -14°C° 0 mm 2 m/S 610 mmHg 71%
    19:00 -14°C° 0 mm 2 m/S 610 mmHg 69%
    20:00 -14°C° 0 mm 2 m/S 610 mmHg 68%
    21:00 -14°C° 0 mm 2 m/S 610 mmHg 67%
    22:00 -14°C° 0 mm 2 m/S 610 mmHg 67%
    23:00 -14°C° 0 mm 2 m/S 610 mmHg 67%

    26 Januar, Sonntag

    Zeit Temperatur Niederschläge Wind Luftdruck Luftfeuchtigkeit
    00:00 -15°C° 0 mm 3 m/S 610 mmHg 67%
    01:00 -14°C° 0 mm 3 m/S 610 mmHg 67%
    02:00 -13°C° 0 mm 2 m/S 610 mmHg 67%
    03:00 -13°C° 0 mm 2 m/S 610 mmHg 67%
    04:00 -13°C° 0 mm 2 m/S 610 mmHg 67%
    05:00 -14°C° 0 mm 3 m/S 609 mmHg 67%
    06:00 -14°C° 0 mm 3 m/S 609 mmHg 67%
    07:00 -13°C° 0 mm 3 m/S 610 mmHg 68%
    08:00 -10°C° 0 mm 2 m/S 610 mmHg 70%
    09:00 -9°C° 0 mm 2 m/S 611 mmHg 71%
    10:00 -9°C° 0 mm 3 m/S 611 mmHg 71%
    11:00 -7°C° 0 mm 3 m/S 611 mmHg 71%
    12:00 -6°C° 0 mm 3 m/S 611 mmHg 71%
    13:00 -6°C° 0 mm 3 m/S 611 mmHg 71%
    14:00 -6°C° 0 mm 3 m/S 610 mmHg 72%
    15:00 -6°C° 0 mm 3 m/S 610 mmHg 72%
    16:00 -8°C° 0 mm 3 m/S 610 mmHg 70%
    17:00 -9°C° 0 mm 3 m/S 609 mmHg 67%
    18:00 -10°C° 0 mm 3 m/S 609 mmHg 65%
    19:00 -9°C° 0 mm 2 m/S 609 mmHg 65%
    20:00 -9°C° 0 mm 2 m/S 610 mmHg 64%
    21:00 -9°C° 0 mm 2 m/S 610 mmHg 64%
    22:00 -9°C° 0 mm 2 m/S 610 mmHg 65%
    23:00 -9°C° 0 mm 2 m/S 610 mmHg 65%

    27 Januar, Montag

    Zeit Temperatur Niederschläge Wind Luftdruck Luftfeuchtigkeit
    00:00 -10°C° 0 mm 2 m/S 610 mmHg 65%
    01:00 -10°C° 0 mm 2 m/S 611 mmHg 65%
    02:00 -10°C° 0 mm 2 m/S 611 mmHg 65%
    03:00 -10°C° 0 mm 2 m/S 611 mmHg 64%
    04:00 -10°C° 0 mm 2 m/S 611 mmHg 64%
    05:00 -10°C° 0 mm 2 m/S 611 mmHg 63%
    06:00 -9°C° 0 mm 1 m/S 612 mmHg 63%
    07:00 -8°C° 0 mm 1 m/S 612 mmHg 64%
    08:00 -7°C° 0 mm 1 m/S 613 mmHg 65%
    09:00 -6°C° 0 mm 0 m/S 614 mmHg 65%
    10:00 -5°C° 0 mm 0 m/S 614 mmHg 66%
    11:00 -4°C° 0 mm 0 m/S 615 mmHg 66%
    12:00 -3°C° 0 mm 0 m/S 615 mmHg 66%
    13:00 -3°C° 0 mm 0 m/S 615 mmHg 69%
    14:00 -2°C° 0 mm 0 m/S 615 mmHg 73%
    15:00 -2°C° 0 mm 0 m/S 615 mmHg 76%
    16:00 -4°C° 0 mm 0 m/S 614 mmHg 76%
    17:00 -6°C° 0 mm 0 m/S 614 mmHg 76%
    18:00 -8°C° 0 mm 0 m/S 613 mmHg 76%
    19:00 -8°C° 0 mm 1 m/S 613 mmHg 73%
    20:00 -8°C° 0 mm 1 m/S 613 mmHg 71%
    21:00 -8°C° 0 mm 1 m/S 613 mmHg 69%
    22:00 -8°C° 0 mm 1 m/S 613 mmHg 68%
    23:00 -8°C° 0 mm 1 m/S 613 mmHg 67%

    28 Januar, Dienstag

    Zeit Temperatur Niederschläge Wind Luftdruck Luftfeuchtigkeit
    00:00 -9°C° 0 mm 1 m/S 613 mmHg 66%
    01:00 -9°C° 0 mm 1 m/S 612 mmHg 67%
    02:00 -10°C° 0 mm 2 m/S 612 mmHg 67%
    03:00 -10°C° 0 mm 2 m/S 612 mmHg 67%
    04:00 -10°C° 0 mm 2 m/S 612 mmHg 67%
    05:00 -10°C° 0 mm 2 m/S 612 mmHg 67%
    06:00 -10°C° 0 mm 2 m/S 612 mmHg 67%
    07:00 -9°C° 0 mm 2 m/S 612 mmHg 68%
    08:00 -8°C° 0 mm 2 m/S 612 mmHg 70%
    09:00 -7°C° 0 mm 2 m/S 612 mmHg 71%
    10:00 -6°C° 0 mm 2 m/S 612 mmHg 71%
    11:00 -5°C° 0 mm 2 m/S 612 mmHg 72%
    12:00 -4°C° 0 mm 2 m/S 612 mmHg 72%
    13:00 -4°C° 0 mm 2 m/S 612 mmHg 73%
    14:00 -4°C° 0 mm 2 m/S 611 mmHg 74%
    15:00 -4°C° 0 mm 2 m/S 611 mmHg 75%
    16:00 -5°C° 0 mm 2 m/S 610 mmHg 73%
    17:00 -6°C° 0 mm 2 m/S 610 mmHg 72%
    18:00 -7°C° 0 mm 2 m/S 610 mmHg 70%
    19:00 -7°C° 0 mm 2 m/S 609 mmHg 71%
    20:00 -7°C° 0 mm 2 m/S 609 mmHg 71%
    21:00 -8°C° 0 mm 2 m/S 609 mmHg 71%
    22:00 -8°C° 0 mm 2 m/S 609 mmHg 71%
    23:00 -8°C° 0 mm 2 m/S 609 mmHg 72%
    Mehr zeigen